Wind_Speed
55 55 56 56 57 57 58 59 59 60 59 58 58 58 57 56 55 56 56 55 55 54 54 54 54 54 54 54 55 56 57 58 59 60 61 61 61 60
50 50 52 54 55 57 57 57 58 58 58 58 57 57 57 56 54 53 53 52 52 51 50 50 50 50 51 52 53 55 56 58 59 60 61 62 63 63
46 48 50 51 53 54 55 56 57 57 57 56 57 56 56 54 52 51 50 49 47 46 46 45 46 46 47 48 49 51 53 55 57 58 60 61 62 63
46 48 50 51 52 52 53 54 55 56 56 55 55 55 54 51 49 48 48 47 46 44 43 44 44 44 45 46 47 48 50 52 54 56 58 61 64 65
45 47 49 50 51 51 51 53 54 55 55 54 52 51 50 48 46 46 46 46 46 45 43 43 44 44 44 45 46 48 50 52 53 54 56 59 62 66
42 44 45 45 46 47 48 49 51 53 53 51 48 47 47 45 45 45 45 45 45 45 44 43 43 44 44 45 47 48 49 50 50 51 53 55 58 61
41 41 40 40 41 43 44 45 46 48 49 48 46 45 45 43 43 43 44 43 44 43 43 43 44 45 45 46 46 47 47 48 48 49 49 51 52 54
39 38 38 37 37 38 39 40 42 43 45 45 45 44 42 41 40 41 41 41 41 42 42 43 44 45 47 47 47 46 46 46 48 48 48 48 49 51
37 36 35 34 33 34 35 37 39 41 42 43 42 41 40 40 40 40 41 41 41 43 43 44 46 47 48 48 48 46 45 46 47 47 48 47 49 50
34 33 32 31 31 33 34 36 37 39 41 41 41 41 41 41 41 41 41 41 42 44 45 45 47 47 48 49 48 47 45 45 46 46 47 47 48 49
32 31 31 30 31 32 32 33 36 39 40 41 41 42 42 43 43 43 43 43 43 45 46 46 47 48 48 49 49 48 46 46 45 46 46 47 47 48
31 31 32 32 31 31 32 33 35 37 39 41 42 44 44 44 45 45 45 45 45 46 47 47 48 48 48 49 50 49 48 47 46 45 45 45 46 46
34 33 34 34 33 32 32 33 34 36 37 39 41 42 43 45 46 47 47 47 47 47 48 49 49 49 48 47 49 50 49 48 46 45 44 44 44 43
36 36 36 36 36 35 35 35 36 37 39 41 42 44 45 46 47 48 49 49 49 49 50 50 51 51 50 49 48 49 50 49 48 45 44 42 41 39
38 39 38 38 38 38 38 37 37 38 40 41 43 44 46 48 49 50 51 52 52 52 53 53 53 53 52 51 50 49 49 49 49 46 42 39 36 34
43 43 42 42 42 42 42 41 40 40 41 42 43 45 47 48 49 51 52 53 53 54 55 55 54 54 53 53 51 50 50 49 49 47 42 36 33 30
49 49 49 48 48 47 47 47 46 46 45 44 44 45 47 49 50 51 52 53 53 54 54 55 55 54 53 53 52 51 51 50 49 48 43 37 32 29
57 56 55 55 55 54 54 53 53 52 51 50 50 49 49 50 51 52 53 53 53 53 53 53 54 54 53 52 52 51 51 50 50 49 45 40 35 30
62 62 63 62 62 62 61 61 59 58 57 56 56 55 54 54 54 54 54 54 54 54 53 54 53 53 52 51 50 50 50 50 51 50 47 43 37 35
64 65 66 67 67 67 67 67 66 64 63 62 61 60 59 58 58 57 57 57 56 55 54 54 55 54 52 50 48 47 49 49 50 50 49 46 41 38
67 67 68 68 69 69 70 70 69 69 68 66 65 64 63 62 61 61 60 58 57 55 54 54 54 54 52 50 48 46 48 49 49 50 50 49 46 43
72 72 71 71 72 71 71 71 71 70 70 69 68 68 67 65 64 63 62 59 57 56 54 53 53 52 50 49 48 47 47 49 50 50 49 50 49 47
77 77 77 76 76 75 75 74 74 73 73 72 71 70 69 68 66 65 63 61 58 56 55 53 52 51 50 49 48 47 47 49 51 52 52 52 52 51
Wind_Direction
253 255 256 256 256 256 255 254 253 251 250 249 249 249 250 251 251 251 250 250 250 251 251 250 250 250 250 251 251 252 252 253 254 255 256 256 256 255
253 255 256 256 256 256 254 253 252 250 249 248 248 249 249 249 250 250 250 250 250 250 250 250 250 250 251 251 252 252 253 254 255 255 256 256 256 256
254 255 257 257 257 256 253 251 249 248 247 246 246 247 247 248 247 248 249 249 249 248 249 250 251 252 253 254 255 255 256 256 257 257 257 257 257 257
256 257 257 257 256 254 251 248 247 246 244 243 243 245 246 246 246 247 247 248 248 248 249 250 252 253 255 256 258 258 259 259 258 259 259 259 257 256
258 260 259 256 255 253 251 247 244 242 242 241 240 242 243 245 246 247 247 247 247 247 247 249 252 254 256 257 258 259 260 260 260 260 261 261 260 259
262 262 260 257 254 252 250 247 243 240 238 237 237 238 241 244 246 246 247 246 246 246 247 249 252 255 256 258 259 260 261 262 262 263 263 264 264 264
264 263 259 256 254 251 250 245 240 236 233 233 235 238 241 243 244 244 244 244 245 246 247 250 252 254 257 259 261 262 264 265 266 267 268 268 270 272
265 263 259 256 254 251 246 240 235 230 229 231 235 238 240 241 242 241 241 242 244 246 248 250 253 255 257 260 262 265 266 268 270 271 272 273 276 278
265 263 257 254 251 246 241 236 231 228 228 231 235 238 240 241 241 240 240 241 244 247 249 251 253 254 257 259 262 264 267 270 272 273 274 277 280 281
264 259 253 251 248 241 237 233 230 230 231 233 237 239 240 241 242 243 243 244 246 248 249 250 253 254 256 258 261 264 267 270 272 274 277 280 284 283
261 255 250 246 243 240 238 235 233 233 234 237 239 242 243 245 245 246 246 247 248 250 251 252 253 255 257 259 262 264 266 268 272 276 279 283 285 285
258 253 247 242 240 240 240 240 240 240 240 242 244 246 247 247 249 249 249 250 250 252 253 254 254 255 256 259 261 263 265 267 271 276 281 284 286 287
254 249 246 243 243 243 244 244 245 245 246 247 248 249 250 251 251 252 252 252 253 254 255 255 256 256 256 256 259 262 264 266 269 274 279 282 286 286
253 250 247 246 245 246 246 247 249 250 251 252 252 253 254 254 254 254 255 255 255 256 257 257 257 257 257 257 256 258 262 265 267 271 276 280 285 284
254 252 250 249 248 248 249 250 251 253 255 255 256 256 256 256 257 257 257 257 257 257 258 258 258 257 257 257 257 257 258 261 264 267 272 276 281 280
255 253 252 252 251 251 252 252 253 255 257 258 258 258 258 258 258 258 258 258 258 259 259 259 259 258 257 257 256 256 256 256 259 263 266 270 275 275
257 256 254 253 253 253 254 254 254 256 257 260 261 262 262 261 261 260 259 259 259 260 261 260 259 258 257 257 256 256 254 253 253 256 259 261 265 268
258 257 256 255 255 254 254 255 255 256 257 259 261 262 263 263 263 262 261 261 260 260 261 262 262 261 259 258 257 255 253 250 249 249 251 253 255 259
257 257 256 256 256 255 255 255 255 256 257 258 259 260 261 262 262 262 262 261 261 261 261 261 261 261 260 259 258 256 252 247 245 244 246 247 248 251
257 256 256 256 255 255 255 255 255 255 256 256 257 258 259 260 261 261 260 260 260 260 260 261 260 260 259 258 256 256 255 248 243 241 242 243 244 245
257 256 256 256 255 255 254 254 254 255 255 255 256 256 257 258 259 259 259 258 258 259 259 259 260 260 258 257 255 253 253 252 246 242 240 242 243 245
258 257 256 255 255 255 255 254 254 254 254 254 254 255 256 257 257 258 257 257 257 257 257 257 257 258 257 256 255 253 252 253 252 248 245 244 245 245
260 259 258 257 256 255 255 254 254 254 254 254 254 255 256 256 256 256 256 256 256 256 256 255 255 256 256 255 255 253 252 252 252 252 252 250 249 248
Height
5575 5578 5581 5584 5586 5589 5592 5595 5600 5604 5609 5613 5616 5620 5624 5629 5633 5636 5640 5644 5648 5652 5656 5660 5664 5667 5671 5675 5679 5683 5686 5690 5693 5697 5700 5704 5709 5714
5559 5562 5565 5568 5570 5573 5576 5579 5583 5589 5594 5598 5602 5605 5610 5615 5619 5622 5625 5630 5634 5638 5641 5645 5649 5652 5656 5660 5664 5667 5671 5674 5677 5681 5685 5688 5693 5697
5545 5548 5550 5552 5555 5557 5560 5564 5568 5573 5579 5584 5587 5590 5594 5600 5604 5608 5612 5615 5619 5624 5627 5631 5634 5638 5641 5645 5648 5651 5655 5658 5661 5664 5668 5672 5676 5681
5531 5533 5535 5537 5539 5541 5544 5548 5552 5557 5563 5569 5573 5576 5580 5586 5591 5595 5598 5602 5606 5610 5614 5617 5620 5624 5627 5630 5633 5636 5639 5642 5645 5648 5652 5656 5658 5661
5517 5519 5520 5522 5524 5526 5529 5532 5537 5542 5548 5554 5560 5563 5567 5572 5577 5581 5585 5589 5593 5596 5600 5604 5607 5610 5613 5616 5619 5622 5625 5628 5631 5632 5634 5636 5638 5641
5503 5505 5506 5507 5508 5510 5513 5517 5522 5527 5534 5540 5546 5551 5555 5560 5565 5568 5572 5576 5580 5583 5587 5591 5594 5597 5600 5603 5606 5608 5610 5612 5613 5615 5616 5618 5618 5620
5490 5491 5492 5494 5495 5497 5499 5503 5507 5513 5520 5526 5533 5539 5544 5548 5553 5556 5560 5563 5567 5570 5574 5578 5582 5585 5587 5589 5591 5594 5595 5597 5598 5598 5599 5600 5600 5599
5478 5479 5480 5481 5483 5484 5487 5490 5495 5501 5508 5515 5521 5526 5532 5537 5541 5545 5548 5552 5555 5558 5562 5566 5569 5572 5574 5576 5578 5579 5581 5581 5582 5582 5582 5582 5582 5581
5466 5467 5468 5470 5472 5473 5476 5480 5485 5491 5497 5504 5509 5514 5520 5525 5529 5532 5536 5539 5543 5546 5549 5553 5555 5559 5561 5563 5564 5565 5566 5566 5567 5567 5566 5565 5564 5562
5454 5455 5457 5460 5462 5463 5467 5471 5476 5482 5487 5493 5498 5503 5506 5511 5515 5520 5523 5527 5530 5532 5535 5539 5541 5545 5547 5548 5549 5550 5551 5552 5551 5551 5550 5548 5546 5543
5444 5445 5448 5450 5452 5455 5459 5463 5468 5472 5477 5481 5485 5490 5494 5499 5503 5507 5510 5514 5516 5518 5521 5525 5527 5530 5532 5534 5534 5535 5536 5537 5537 5536 5534 5532 5528 5525
5434 5436 5438 5440 5443 5446 5449 5453 5457 5461 5465 5469 5473 5477 5482 5486 5489 5493 5496 5499 5501 5503 5505 5509 5512 5514 5518 5520 5520 5521 5521 5522 5523 5522 5520 5516 5512 5508
5424 5426 5427 5430 5433 5436 5439 5442 5445 5449 5453 5457 5461 5464 5468 5472 5475 5478 5481 5484 5486 5488 5490 5494 5496 5498 5502 5506 5507 5507 5507 5508 5508 5508 5506 5503 5499 5494
5413 5414 5416 5419 5421 5424 5427 5430 5433 5436 5440 5443 5447 5451 5454 5457 5459 5462 5465 5468 5470 5472 5474 5477 5481 5483 5486 5490 5494 5495 5494 5494 5494 5494 5493 5491 5487 5483
5399 5401 5404 5406 5408 5411 5414 5417 5420 5423 5426 5429 5432 5435 5439 5441 5444 5447 5449 5452 5454 5456 5458 5461 5464 5467 5471 5474 5477 5480 5481 5481 5480 5482 5482 5481 5478 5474
5385 5387 5390 5392 5395 5397 5400 5402 5405 5408 5411 5414 5417 5419 5422 5425 5428 5430 5433 5436 5438 5439 5442 5444 5447 5451 5454 5458 5461 5464 5466 5468 5469 5469 5471 5472 5470 5467
5368 5371 5374 5376 5379 5381 5384 5387 5390 5393 5396 5398 5401 5404 5406 5409 5411 5414 5416 5419 5422 5424 5425 5427 5431 5434 5438 5442 5445 5447 5450 5453 5456 5457 5459 5462 5462 5460
5350 5352 5355 5357 5360 5363 5366 5369 5373 5376 5379 5382 5385 5388 5390 5392 5395 5397 5400 5403 5406 5408 5410 5412 5414 5417 5422 5426 5428 5432 5435 5438 5441 5444 5446 5450 5452 5452
5329 5331 5334 5337 5340 5343 5346 5350 5353 5356 5360 5363 5367 5370 5373 5376 5378 5381 5383 5386 5389 5392 5395 5396 5398 5401 5405 5409 5412 5414 5418 5421 5425 5430 5433 5437 5441 5443
5306 5308 5311 5314 5317 5320 5324 5328 5331 5335 5339 5343 5347 5351 5354 5358 5361 5363 5366 5369 5372 5376 5379 5380 5382 5385 5388 5393 5397 5401 5400 5404 5410 5415 5419 5424 5428 5432
5282 5284 5287 5289 5292 5296 5300 5304 5308 5312 5316 5321 5325 5330 5334 5338 5341 5345 5348 5352 5355 5359 5363 5365 5365 5368 5372 5377 5382 5386 5388 5389 5393 5399 5405 5410 5415 5420
5255 5258 5261 5264 5268 5271 5275 5280 5284 5288 5293 5297 5302 5307 5312 5317 5321 5325 5329 5334 5338 5342 5346 5349 5350 5353 5356 5361 5366 5371 5374 5376 5379 5384 5390 5395 5399 5406
5226 5230 5233 5237 5241 5245 5250 5255 5259 5264 5269 5274 5279 5285 5290 5295 5300 5305 5310 5314 5319 5324 5328 5332 5334 5338 5341 5345 5350 5355 5359 5362 5365 5370 5375 5378 5384 5390